EA1QW Weather Reports


Display with metric or nautical units.
time (UTC)temp
F
wind
direction
speed
MPH
gust
MPH
rain 1hr
in
rain 24hr
in
rain mn
in
humidity
%
barometer
mb
20260903235026 66 16 0.0 0.0 0.00 0.00 0.00 95 1018.6
20260903234513 66 16 0.0 0.0 0.00 0.00 0.00 95 1018.7
20260903234042 66 16 0.0 0.0 0.00 0.00 0.00 95 1018.7
20260903233509 67 16 0.0 0.0 0.00 0.00 0.00 96 1018.7
20260903233016 67 16 0.0 0.0 0.00 0.00 0.00 95 1018.7
20260903232523 67 16 0.0 0.0 0.00 0.00 0.00 95 1018.8
20260903232016 67 16 0.0 0.0 0.00 0.00 0.00 95 1018.9
20260903231526 67 16 0.0 0.0 0.00 0.00 0.00 95 1018.9
20260903231012 67 16 0.0 0.0 0.00 0.00 0.00 95 1019.1
20260903230540 67 16 0.0 0.0 0.00 0.00 0.00 95 1019.1
20260903230026 67 16 0.0 0.0 0.00 0.00 0.00 95 1019.1
20260903225513 67 16 0.0 0.0 0.00 0.00 0.00 95 1019.1
20260903225019 68 16 0.0 0.0 0.00 0.00 0.00 95 1019.0
20260903224526 68 16 0.0 0.0 0.00 0.00 0.00 94 1019.0
20260903224014 68 16 0.0 0.0 0.00 0.00 0.00 94 1019.0
20260903223543 68 16 0.0 0.0 0.00 0.00 0.00 94 1018.9
20260903223009 68 16 0.0 0.0 0.00 0.00 0.00 94 1018.8
20260903222538 68 16 0.0 0.0 0.00 0.00 0.00 94 1019.0
20260903222024 68 16 0.0 0.0 0.00 0.00 0.00 94 1018.9
20260903221512 68 16 0.0 0.0 0.00 0.00 0.00 94 1019.0
20260903221020 68 16 0.0 0.0 0.00 0.00 0.00 94 1018.9
20260903220529 69 16 0.0 0.0 0.00 0.00 0.00 94 1018.9
20260903220015 69 16 0.0 0.0 0.00 0.00 0.00 94 1019.0
20260903215526 69 16 0.0 0.0 0.00 0.00 0.00 94 1019.0
20260903215011 69 16 0.0 0.0 0.00 0.00 0.00 94 1018.9
20260903214540 69 16 0.0 0.0 0.00 0.00 0.00 94 1019.1
20260903214028 69 16 0.0 0.0 0.00 0.00 0.00 94 1019.1
20260903213515 69 16 0.0 0.0 0.00 0.00 0.00 94 1019.0
20260903213042 69 16 0.0 0.0 0.00 0.00 0.00 93 1019.0
20260903212510 69 16 0.0 0.0 0.00 0.00 0.00 93 1019.2
20260903212017 69 16 0.0 0.0 0.00 0.00 0.00 93 1019.2
20260903211526 70 16 0.0 0.0 0.00 0.00 0.00 93 1019.3
20260903211012 70 16 0.0 0.0 0.00 0.00 0.00 92 1019.4
20260903210521 70 16 0.0 0.0 0.00 0.00 0.00 93 1019.4
20260903210048 70 16 0.0 0.0 0.00 0.00 0.00 92 1019.4
20260903205515 70 16 0.0 0.0 0.00 0.00 0.00 92 1019.3
20260903205040 70 16 0.0 0.0 0.00 0.00 0.00 92 1019.3
20260903204528 70 16 0.0 0.0 0.00 0.00 0.00 92 1019.4
20260903204016 70 16 0.0 0.0 0.00 0.00 0.00 91 1019.3
20260903203525 70 16 0.0 0.0 0.00 0.00 0.00 91 1019.4
20260903203008 71 16 0.0 0.0 0.00 0.00 0.00 91 1019.3
20260903202516 71 16 0.0 0.0 0.00 0.00 0.00 90 1019.3
20260903202025 71 16 0.0 0.0 0.00 0.00 0.00 90 1019.3
20260903201512 71 16 0.0 0.0 0.00 0.00 0.00 90 1019.2
20260903201017 71 16 0.0 0.0 0.00 0.00 0.00 89 1019.2
20260903200546 72 16 0.0 0.0 0.00 0.00 0.00 89 1019.2
20260903200033 72 16 0.0 0.0 0.00 0.00 0.00 88 1019.0
20260903195521 72 16 0.0 0.0 0.00 0.00 0.00 88 1019.0
20260903195009 72 16 0.0 0.0 0.00 0.00 0.00 88 1018.8
20260903194537 72 16 0.0 0.0 0.00 0.00 0.00 87 1018.8
20260903194021 72 16 0.0 0.0 0.00 0.00 0.00 87 1018.8
20260903193509 73 16 0.0 0.0 0.00 0.00 0.00 86 1018.8
20260903193016 73 16 0.0 0.0 0.00 0.00 0.00 86 1018.8
20260903192525 73 16 0.0 0.0 0.00 0.00 0.00 86 1018.7
20260903192013 73 16 0.0 0.0 0.00 0.00 0.00 85 1018.8
20260903191520 73 16 0.0 0.0 0.00 0.00 0.00 85 1018.7
20260903191049 73 16 0.0 1.0 0.00 0.00 0.00 85 1018.6
20260903190515 74 16 0.0 1.0 0.00 0.00 0.00 84 1018.6
20260903190024 74 16 0.0 0.0 0.00 0.00 0.00 84 1018.6
20260903185531 74 16 0.0 0.0 0.00 0.00 0.00 84 1018.7
20260903185015 74 16 0.0 0.0 0.00 0.00 0.00 84 1018.6
20260903184524 74 16 0.0 4.0 0.00 0.00 0.00 84 1018.6
20260903184012 74 16 0.0 4.0 0.00 0.00 0.00 83 1018.6
20260903183520 74 16 2.0 4.0 0.00 0.00 0.00 83 1018.5
20260903183027 74 16 0.0 1.0 0.00 0.00 0.00 83 1018.6
20260903182515 74 16 0.0 3.0 0.00 0.00 0.00 82 1018.6
20260903182024 75 16 1.0 6.0 0.00 0.00 0.00 82 1018.7
20260903181510 75 16 0.0 6.0 0.00 0.00 0.00 82 1018.7
20260903181018 75 28 2.0 8.0 0.00 0.00 0.00 82 1018.7
20260903180526 75 28 3.0 8.0 0.00 0.00 0.00 81 1018.7
20260903180014 75 25 3.0 8.0 0.00 0.00 0.00 81 1018.7
20260903175524 75 17 2.0 8.0 0.00 0.00 0.00 81 1018.8
20260903175031 75 35 0.0 4.0 0.00 0.00 0.00 81 1018.8
20260903174517 75 35 1.0 8.0 0.00 0.00 0.00 82 1018.9
20260903174024 75 37 4.0 8.0 0.00 0.00 0.00 82 1018.9
20260903173533 75 26 2.0 8.0 0.00 0.00 0.00 82 1019.0
20260903173021 75 19 4.0 10.0 0.00 0.00 0.00 82 1019.0
20260903172509 75 34 4.0 12.0 0.00 0.00 0.00 82 1019.1
20260903172014 75 21 5.0 12.0 0.00 0.00 0.00 82 1019.1
20260903171544 75 38 7.0 12.0 0.00 0.00 0.00 82 1019.1
20260903171011 75 30 7.0 11.0 0.00 0.00 0.00 82 1019.2
20260903170518 75 9 7.0 12.0 0.00 0.00 0.00 82 1019.1
20260903170028 75 18 8.0 12.0 0.00 0.00 0.00 81 1019.2
20260903165516 75 22 7.0 12.0 0.00 0.00 0.00 81 1019.2
20260903165023 75 22 7.0 12.0 0.00 0.00 0.00 81 1019.3
20260903164510 75 38 8.0 12.0 0.00 0.00 0.00 80 1019.3
20260903164035 76 26 7.0 12.0 0.00 0.00 0.00 80 1019.3
20260903163523 76 48 6.0 12.0 0.00 0.00 0.00 80 1019.3
20260903163011 76 18 6.0 13.0 0.00 0.00 0.00 80 1019.3
20260903162540 76 37 6.0 13.0 0.00 0.00 0.00 80 1019.3
20260903162028 76 51 8.0 15.0 0.00 0.00 0.00 80 1019.5
20260903161531 76 19 7.0 15.0 0.00 0.00 0.00 80 1019.5
20260903161037 76 17 7.0 12.0 0.00 0.00 0.00 80 1019.5
20260903160524 76 13 7.0 11.0 0.00 0.00 0.00 80 1019.7
20260903160011 76 28 6.0 12.0 0.00 0.00 0.00 80 1019.6
20260903155518 76 50 6.0 12.0 0.00 0.00 0.00 80 1019.7
20260903155026 75 52 7.0 13.0 0.00 0.00 0.00 81 1019.8
20260903154514 75 45 8.0 15.0 0.00 0.00 0.00 82 1019.9
20260903154022 75 22 9.0 15.0 0.00 0.00 0.00 82 1019.9
20260903153509 75 30 9.0 15.0 0.00 0.00 0.00 82 1020.0
20260903153013 75 5 8.0 16.0 0.00 0.00 0.00 82 1020.0
20260903152522 74 40 9.0 16.0 0.00 0.00 0.00 83 1020.2
20260903152028 74 26 10.0 16.0 0.00 0.00 0.00 83 1020.2
20260903151515 74 31 9.0 17.0 0.00 0.00 0.00 84 1020.2
20260903151022 74 56 10.0 20.0 0.00 0.00 0.00 84 1020.3
20260903150528 74 25 13.0 20.0 0.00 0.00 0.00 83 1020.2
20260903150013 74 46 11.0 20.0 0.00 0.00 0.00 83 1020.2
20260903145522 74 37 13.0 21.0 0.00 0.00 0.00 83 1020.4
20260903145010 74 51 13.0 21.0 0.00 0.00 0.00 83 1020.4
20260903144521 74 46 13.0 22.0 0.00 0.00 0.00 83 1020.4
20260903144009 74 59 12.0 22.0 0.00 0.00 0.00 84 1020.5
20260903143538 74 30 11.0 20.0 0.00 0.00 0.00 83 1020.4
20260903143012 74 39 13.0 24.0 0.00 0.00 0.00 84 1020.4
20260903142521 74 48 14.0 24.0 0.00 0.00 0.00 83 1020.4
20260903142011 74 28 12.0 22.0 0.00 0.00 0.00 83 1020.4
20260903141518 74 40 12.0 22.0 0.00 0.00 0.00 83 1020.5
20260903141026 74 65 13.0 22.0 0.00 0.00 0.00 83 1020.6
20260903140510 74 44 13.0 23.0 0.00 0.00 0.00 83 1020.5
20260903140038 74 49 13.0 23.0 0.00 0.00 0.00 83 1020.4
20260903135543 74 30 13.0 23.0 0.00 0.00 0.00 83 1020.4
20260903135021 74 28 13.0 23.0 0.00 0.00 0.00 82 1020.4
20260903134509 74 34 15.0 23.0 0.00 0.00 0.00 82 1020.4
20260903134035 74 76 14.0 23.0 0.00 0.00 0.00 82 1020.5
20260903133522 74 59 14.0 22.0 0.00 0.00 0.00 82 1020.5
20260903133031 74 342 13.0 22.0 0.00 0.00 0.00 81 1020.5
20260903132520 74 42 13.0 22.0 0.00 0.00 0.00 80 1020.6
20260903132027 75 34 13.0 20.0 0.00 0.00 0.00 79 1020.5
20260903131527 75 5 10.0 20.0 0.00 0.00 0.00 80 1020.6
20260903131036 74 31 9.0 17.0 0.00 0.00 0.00 81 1020.5
20260903130524 74 48 10.0 20.0 0.00 0.00 0.00 80 1020.6
20260903130012 74 33 12.0 22.0 0.00 0.00 0.00 80 1020.5
20260903125519 74 51 12.0 22.0 0.00 0.00 0.00 80 1020.6
20260903125047 75 81 12.0 19.0 0.00 0.00 0.00 79 1020.6
20260903124513 75 13 11.0 16.0 0.00 0.00 0.00 78 1020.7
20260903124019 75 34 10.0 17.0 0.00 0.00 0.00 79 1020.7
20260903123028 75 5 10.0 19.0 0.00 0.00 0.00 79 1020.8
20260903122518 74 28 11.0 18.0 0.00 0.00 0.00 80 1021.0
20260903122025 75 49 9.0 19.0 0.00 0.00 0.00 80 1020.9
20260903121514 75 45 12.0 19.0 0.00 0.00 0.00 80 1021.1
20260903121043 75 48 10.0 19.0 0.00 0.00 0.00 79 1021.0
20260903120510 74 78 8.0 19.0 0.00 0.00 0.00 80 1021.1
20260903120018 74 5 10.0 20.0 0.00 0.00 0.00 81 1021.1
20260903115525 74 25 12.0 20.0 0.00 0.00 0.00 81 1021.2
20260903115013 74 44 10.0 19.0 0.00 0.00 0.00 81 1021.2
20260903114521 73 38 11.0 19.0 0.00 0.00 0.00 81 1021.2
20260903114027 73 18 12.0 19.0 0.00 0.00 0.00 81 1021.3
20260903113536 73 25 12.0 17.0 0.00 0.00 0.00 81 1021.4
20260903113042 73 49 12.0 17.0 0.00 0.00 0.00 81 1021.5
20260903112509 73 57 11.0 19.0 0.00 0.00 0.00 81 1021.5
20260903112038 73 45 11.0 19.0 0.00 0.00 0.00 81 1021.6
20260903111526 73 26 11.0 18.0 0.00 0.00 0.00 81 1021.7
20260903111014 73 25 10.0 18.0 0.00 0.00 0.00 82 1021.7
20260903110523 73 28 11.0 18.0 0.00 0.00 0.00 83 1021.9
20260903110009 73 49 10.0 18.0 0.00 0.00 0.00 83 1022.0
20260903105518 73 26 12.0 18.0 0.00 0.00 0.00 83 1021.9
20260903105021 73 59 11.0 16.0 0.00 0.00 0.00 83 1021.9
20260903104509 72 49 10.0 19.0 0.00 0.00 0.00 84 1022.0
20260903104017 72 45 11.0 19.0 0.00 0.00 0.00 84 1021.9
20260903103526 72 28 12.0 16.0 0.00 0.00 0.00 85 1021.9
20260903103014 72 59 10.0 16.0 0.00 0.00 0.00 85 1022.0
20260903102522 72 39 10.0 16.0 0.00 0.00 0.00 85 1022.1
20260903102011 72 26 10.0 18.0 0.00 0.00 0.00 86 1022.0
20260903101519 72 89 12.0 18.0 0.00 0.00 0.00 85 1022.0
20260903101027 72 20 11.0 17.0 0.00 0.00 0.00 85 1022.0
20260903100516 72 56 9.0 17.0 0.00 0.00 0.00 86 1022.0
20260903100023 72 65 11.0 16.0 0.00 0.00 0.00 85 1021.9
20260903095513 72 52 10.0 16.0 0.00 0.00 0.00 85 1021.9
20260903095023 72 34 9.0 15.0 0.00 0.00 0.00 86 1022.0
20260903094530 72 59 7.0 17.0 0.00 0.00 0.00 86 1022.0
20260903094016 72 27 9.0 15.0 0.00 0.00 0.00 86 1022.0
20260903093525 72 28 7.0 14.0 0.00 0.00 0.00 87 1021.9
20260903093014 71 13 6.0 14.0 0.00 0.00 0.00 87 1022.0
20260903092520 71 29 8.0 13.0 0.00 0.00 0.00 88 1022.0
20260903092009 71 50 8.0 14.0 0.00 0.00 0.00 88 1022.0
20260903091517 71 23 7.0 14.0 0.00 0.00 0.00 88 1021.9
20260903091046 71 24 6.0 14.0 0.00 0.00 0.00 89 1021.9
20260903090532 70 36 8.0 14.0 0.00 0.00 0.00 89 1021.9
20260903090039 70 47 7.0 10.0 0.00 0.00 0.00 91 1021.9
20260903085546 70 9 4.0 12.0 0.00 0.00 0.00 92 1022.0
20260903085011 69 11 6.0 12.0 0.00 0.00 0.00 93 1022.0
20260903084540 69 294 1.0 7.0 0.00 0.00 0.00 94 1022.0
20260903084025 68 294 1.0 7.0 0.00 0.00 0.00 95 1022.0
20260903083512 68 301 2.0 6.0 0.00 0.00 0.00 96 1022.0
20260903083020 68 301 1.0 5.0 0.00 0.00 0.00 97 1022.0
20260903082525 67 306 3.0 5.0 0.00 0.00 0.00 98 1021.9
20260903082049 67 80 0.0 0.0 0.00 0.00 0.00 99 1021.9
20260903081515 66 80 0.0 0.0 0.00 0.00 0.00 99 1021.8
20260903081020 66 80 0.0 0.0 0.00 0.00 0.00 100 1021.8
20260903080525 66 80 0.0 0.0 0.00 0.00 0.00 100 1021.9
20260903080033 65 80 0.0 0.0 0.00 0.00 0.00 100 1021.8
20260903075521 65 80 0.0 0.0 0.00 0.00 0.00 100 1021.8
20260903075011 65 80 0.0 0.0 0.00 0.00 0.00 100 1021.9
20260903074517 64 80 0.0 0.0 0.00 0.00 0.00 100 1021.8
20260903074026 64 80 0.0 0.0 0.00 0.00 0.00 100 1021.8
20260903073515 64 80 0.0 0.0 0.00 0.00 0.00 100 1021.8
20260903073023 63 80 0.0 0.0 0.00 0.00 0.00 100 1021.9
20260903072512 63 80 0.0 0.0 0.00 0.00 0.00 100 1021.9
20260903072021 63 80 0.0 0.0 0.00 0.00 0.00 100 1021.9
20260903071510 62 80 0.0 0.0 0.00 0.00 0.00 100 1021.9
20260903071038 62 80 0.0 0.0 0.00 0.00 0.00 100 1021.8
20260903070526 62 80 0.0 0.0 0.00 0.00 0.00 100 1021.9
20260903070014 62 80 0.0 0.0 0.00 0.00 0.00 100 1021.8
20260903065522 62 80 0.0 0.0 0.00 0.00 0.00 100 1021.8
20260903065010 61 80 0.0 0.0 0.00 0.00 0.00 100 1021.8
20260903064518 61 80 0.0 0.0 0.00 0.00 0.00 100 1021.7
20260903064027 61 80 0.0 0.0 0.00 0.00 0.00 99 1021.8
20260903063515 61 80 0.0 0.0 0.00 0.00 0.00 99 1021.7
20260903063024 61 80 0.0 0.0 0.00 0.00 0.00 99 1021.7
20260903062512 60 80 0.0 0.0 0.00 0.00 0.00 99 1021.9
20260903062017 60 80 0.0 0.0 0.00 0.00 0.00 99 1021.7
20260903061525 60 80 0.0 0.0 0.00 0.00 0.00 99 1021.8
20260903061013 60 80 0.0 0.0 0.00 0.00 0.00 99 1021.8
20260903060521 60 80 0.0 0.0 0.00 0.00 0.00 99 1021.9
20260903060010 60 80 0.0 0.0 0.00 0.00 0.00 99 1021.8
20260903055516 60 80 0.0 0.0 0.00 0.00 0.00 99 1021.8
20260903055009 60 80 0.0 0.0 0.00 0.00 0.00 98 1021.8
20260903054517 60 80 0.0 0.0 0.00 0.00 0.00 98 1021.8
20260903054042 60 80 0.0 0.0 0.00 0.00 0.00 98 1021.8
20260903053513 60 80 0.0 0.0 0.00 0.00 0.00 98 1021.7
20260903053019 60 80 0.0 0.0 0.00 0.00 0.00 98 1021.8
20260903052523 60 80 0.0 0.0 0.00 0.00 0.00 98 1021.6
20260903052015 60 80 0.0 0.0 0.00 0.00 0.00 98 1021.8
20260903051523 60 80 0.0 0.0 0.00 0.00 0.00 98 1021.8
20260903051012 60 80 0.0 0.0 0.00 0.00 0.00 98 1021.8
20260903050519 60 80 0.0 0.0 0.00 0.00 0.00 98 1021.8
20260903050024 60 80 0.0 0.0 0.00 0.00 0.00 98 1021.8
20260903045512 61 80 0.0 0.0 0.00 0.00 0.00 98 1021.9
20260903045018 61 80 0.0 0.0 0.00 0.00 0.00 98 1021.9
20260903044526 61 80 0.0 0.0 0.00 0.00 0.00 98 1021.9
20260903044014 61 80 0.0 0.0 0.00 0.00 0.00 98 1021.9
20260903043522 61 80 0.0 0.0 0.00 0.00 0.00 98 1021.9
20260903043011 61 80 0.0 0.0 0.00 0.00 0.00 98 1022.0
20260903042518 61 80 0.0 0.0 0.00 0.00 0.00 98 1021.9
20260903042026 61 80 0.0 0.0 0.00 0.00 0.00 98 1021.9
20260903041514 61 80 0.0 0.0 0.00 0.00 0.00 98 1021.9
20260903041019 61 80 0.0 0.0 0.00 0.00 0.00 98 1021.9
20260903040527 61 80 0.0 0.0 0.00 0.00 0.00 98 1021.8
20260903040036 61 80 0.0 0.0 0.00 0.00 0.00 97 1021.9
20260903035522 61 80 0.0 0.0 0.00 0.00 0.00 97 1021.9
20260903035009 61 80 0.0 0.0 0.00 0.00 0.00 97 1022.0
20260903034517 61 80 0.0 0.0 0.00 0.00 0.00 97 1022.1
20260903034025 62 80 0.0 0.0 0.00 0.00 0.00 97 1022.1
20260903033513 62 80 0.0 0.0 0.00 0.00 0.00 97 1022.2
20260903033040 62 80 0.0 0.0 0.00 0.00 0.00 97 1022.2
20260903032549 62 80 0.0 0.0 0.00 0.00 0.00 97 1022.1
20260903032037 62 80 0.0 0.0 0.00 0.00 0.00 97 1022.2
20260903031524 62 80 0.0 0.0 0.00 0.00 0.00 97 1022.2
20260903031011 62 80 0.0 0.0 0.00 0.00 0.00 97 1022.2
20260903030520 62 80 0.0 0.0 0.00 0.00 0.00 97 1022.3
20260903030027 62 80 0.0 0.0 0.00 0.00 0.00 97 1022.3
20260903025515 62 80 0.0 0.0 0.00 0.00 0.00 97 1022.4
20260903025020 62 80 0.0 0.0 0.00 0.00 0.00 97 1022.4
20260903024508 62 80 0.0 0.0 0.00 0.00 0.00 97 1022.2
20260903024016 62 80 0.0 0.0 0.00 0.00 0.00 96 1022.2
20260903023524 62 80 0.0 0.0 0.00 0.00 0.00 96 1022.3
20260903023032 62 80 0.0 0.0 0.00 0.00 0.00 96 1022.2
20260903022520 62 80 0.0 0.0 0.00 0.00 0.00 96 1022.3
20260903022029 62 80 0.0 0.0 0.00 0.00 0.00 96 1022.3
20260903021538 62 80 0.0 0.0 0.00 0.00 0.00 96 1022.4
20260903021024 62 80 0.0 0.0 0.00 0.00 0.00 96 1022.4
20260903020512 62 80 0.0 0.0 0.00 0.00 0.00 96 1022.5
20260903020019 62 80 0.0 0.0 0.00 0.00 0.00 96 1022.4
20260903015526 62 80 0.0 0.0 0.00 0.00 0.00 96 1022.5
20260903015014 62 80 0.0 0.0 0.00 0.00 0.00 96 1022.5
20260903014522 63 80 0.0 0.0 0.00 0.00 0.00 96 1022.5
20260903014010 63 80 0.0 0.0 0.00 0.00 0.00 96 1022.6
20260903013519 63 80 0.0 0.0 0.00 0.00 0.00 96 1022.5
20260903013048 63 80 0.0 0.0 0.00 0.00 0.00 95 1022.6
20260903012515 63 80 0.0 0.0 0.00 0.00 0.00 95 1022.5
20260903012020 63 80 0.0 0.0 0.00 0.00 0.00 95 1022.7
20260903011528 63 80 0.0 0.0 0.00 0.00 0.00 95 1022.6
20260903011016 63 80 0.0 0.0 0.00 0.00 0.00 95 1022.6
20260903010545 63 80 0.0 0.0 0.00 0.00 0.00 95 1022.6
20260903010010 63 80 0.0 0.0 0.00 0.00 0.00 95 1022.6
20260903005518 63 80 0.0 0.0 0.00 0.00 0.00 95 1022.6
20260903005021 63 80 0.0 0.0 0.00 0.00 0.00 94 1022.7
20260903004509 63 80 0.0 0.0 0.00 0.00 0.00 94 1022.7
20260903004017 64 80 0.0 0.0 0.00 0.00 0.00 94 1022.6
20260903003524 64 80 0.0 0.0 0.00 0.00 0.00 94 1022.6
20260903003012 64 80 0.0 0.0 0.00 0.00 0.00 94 1022.6
20260903002520 64 80 0.0 0.0 0.00 0.00 0.00 94 1022.6
20260903002009 64 80 0.0 0.0 0.00 0.00 0.00 94 1022.6
20260903001517 64 80 0.0 0.0 0.00 0.00 0.00 94 1022.6
20260903001026 64 80 0.0 0.0 0.00 0.00 0.00 94 1022.7
20260903000513 64 80 0.0 0.0 0.00 0.00 0.00 94 1022.6
20260903000022 65 80 0.0 0.0 0.00 0.00 0.00 93 1022.7
20260902235510 65 80 0.0 0.0 0.00 0.00 0.00 93 1022.7